Time,TemperatureF,DewpointF,PressureIn,WindDirection,WindDirectionDegrees,WindSpeedMPH,WindSpeedGustMPH,Humidity,HourlyPrecipIn,Conditions,Clouds,dailyrainin,SolarRadiationWatts/m^2,SoftwareType,DateUTC
2013-11-05 00:02:00,22.0,20.0,-100.00,WSW,253,4.0,14.0,90,0.00,,,0.00,0.000000,,2013-11-05 07:02:00,
2013-11-05 00:11:00,22.0,20.0,-100.00,WSW,253,4.0,14.0,90,0.00,,,0.00,0.000000,,2013-11-05 07:11:00,
2013-11-05 00:22:00,22.0,20.0,-100.00,WSW,253,4.0,14.0,90,0.00,,,0.00,0.000000,,2013-11-05 07:22:00,
2013-11-05 00:32:00,22.0,20.0,-100.00,WSW,253,4.0,14.0,90,0.00,,,0.00,0.000000,,2013-11-05 07:32:00,
2013-11-05 00:52:00,23.0,21.0,-100.00,SW,235,4.0,8.0,93,0.00,,,0.00,0.000000,,2013-11-05 07:52:00,
2013-11-05 01:02:00,23.0,21.0,-100.00,SW,235,4.0,8.0,93,0.00,,,0.00,0.000000,,2013-11-05 08:02:00,
2013-11-05 01:11:00,23.0,21.0,-100.00,SW,235,4.0,8.0,93,0.00,,,0.00,0.000000,,2013-11-05 08:11:00,
2013-11-05 01:22:00,23.0,21.0,-100.00,SW,235,4.0,8.0,93,0.00,,,0.00,0.000000,,2013-11-05 08:22:00,
2013-11-05 01:32:00,23.0,21.0,-100.00,SW,235,4.0,8.0,93,0.00,,,0.00,0.000000,,2013-11-05 08:32:00,
2013-11-05 02:11:00,24.0,22.0,-100.00,NW,308,3.0,11.0,93,0.00,,,0.00,0.000000,,2013-11-05 09:11:00,
2013-11-05 02:22:00,24.0,22.0,-100.00,NW,308,3.0,11.0,93,0.00,,,0.00,0.000000,,2013-11-05 09:22:00,
2013-11-05 02:33:00,24.0,22.0,-100.00,NW,308,3.0,11.0,93,0.00,,,0.00,0.000000,,2013-11-05 09:33:00,
2013-11-05 03:13:00,26.0,22.0,-100.00,WSW,254,9.0,23.0,85,0.00,,,0.00,0.000000,,2013-11-05 10:13:00,
2013-11-05 03:23:00,26.0,22.0,-100.00,WSW,254,9.0,23.0,85,0.00,,,0.00,0.000000,,2013-11-05 10:23:00,
2013-11-05 03:33:00,26.0,22.0,-100.00,WSW,254,9.0,23.0,85,0.00,,,0.00,0.000000,,2013-11-05 10:33:00,
2013-11-05 03:53:00,27.0,22.0,-100.00,WSW,248,8.0,19.0,80,0.00,,,0.00,0.000000,,2013-11-05 10:53:00,
2013-11-05 04:02:00,27.0,22.0,-100.00,WSW,248,8.0,19.0,80,0.00,,,0.00,0.000000,,2013-11-05 11:02:00,
2013-11-05 04:12:00,27.0,22.0,-100.00,WSW,248,8.0,19.0,80,0.00,,,0.00,0.000000,,2013-11-05 11:12:00,
2013-11-05 04:22:00,27.0,22.0,-100.00,WSW,248,8.0,19.0,80,0.00,,,0.00,0.000000,,2013-11-05 11:22:00,
2013-11-05 04:33:00,27.0,22.0,-100.00,WSW,248,8.0,19.0,80,0.00,,,0.00,0.000000,,2013-11-05 11:33:00,
2013-11-05 04:52:00,28.0,20.0,-100.00,SW,230,11.0,19.0,71,0.00,,,0.00,0.000000,,2013-11-05 11:52:00,
2013-11-05 05:02:00,28.0,20.0,-100.00,SW,230,11.0,19.0,71,0.00,,,0.00,0.000000,,2013-11-05 12:02:00,
2013-11-05 05:12:00,28.0,20.0,-100.00,SW,230,11.0,19.0,71,0.00,,,0.00,0.000000,,2013-11-05 12:12:00,
2013-11-05 05:22:00,28.0,20.0,-100.00,SW,230,11.0,19.0,71,0.00,,,0.00,0.000000,,2013-11-05 12:22:00,
2013-11-05 05:32:00,28.0,20.0,-100.00,SW,230,11.0,19.0,71,0.00,,,0.00,0.000000,,2013-11-05 12:32:00,
2013-11-05 05:52:00,27.0,21.0,-100.00,WSW,241,13.0,25.0,77,0.00,,,0.00,0.000000,,2013-11-05 12:52:00,
2013-11-05 06:01:00,27.0,21.0,-100.00,WSW,241,13.0,25.0,77,0.00,,,0.00,0.000000,,2013-11-05 13:01:00,
2013-11-05 06:11:00,27.0,21.0,-100.00,WSW,241,13.0,25.0,77,0.00,,,0.00,0.000000,,2013-11-05 13:11:00,
2013-11-05 06:21:00,27.0,21.0,-100.00,WSW,241,13.0,25.0,77,0.00,,,0.00,0.000000,,2013-11-05 13:21:00,
2013-11-05 06:32:00,27.0,21.0,-100.00,WSW,241,13.0,25.0,77,0.00,,,0.00,0.000000,,2013-11-05 13:32:00,
2013-11-05 06:52:00,25.0,18.0,-100.00,West,280,9.0,22.0,74,0.00,,,0.00,1.000000,,2013-11-05 13:52:00,
2013-11-05 07:02:00,25.0,18.0,-100.00,West,280,9.0,22.0,74,0.00,,,0.00,1.000000,,2013-11-05 14:02:00,
2013-11-05 07:11:00,25.0,18.0,-100.00,West,280,9.0,22.0,74,0.00,,,0.00,1.000000,,2013-11-05 14:11:00,
2013-11-05 07:22:00,25.0,18.0,-100.00,West,280,9.0,22.0,74,0.00,,,0.00,1.000000,,2013-11-05 14:22:00,
2013-11-05 07:32:00,25.0,18.0,-100.00,West,280,9.0,22.0,74,0.00,,,0.00,1.000000,,2013-11-05 14:32:00,
2013-11-05 07:52:00,26.0,13.0,-100.00,WSW,252,14.0,25.0,58,0.00,,,0.00,12.000000,,2013-11-05 14:52:00,
2013-11-05 08:02:00,26.0,13.0,-100.00,WSW,252,14.0,25.0,58,0.00,,,0.00,12.000000,,2013-11-05 15:02:00,
2013-11-05 08:11:00,26.0,13.0,-100.00,WSW,252,14.0,25.0,58,0.00,,,0.00,12.000000,,2013-11-05 15:11:00,
2013-11-05 08:22:00,26.0,13.0,-100.00,WSW,252,14.0,25.0,58,0.00,,,0.00,12.000000,,2013-11-05 15:22:00,
2013-11-05 08:33:00,26.0,13.0,-100.00,WSW,252,14.0,25.0,58,0.00,,,0.00,12.000000,,2013-11-05 15:33:00,
2013-11-05 08:53:00,28.0,15.0,-100.00,West,265,8.0,21.0,58,0.00,,,0.00,112.000000,,2013-11-05 15:53:00,
2013-11-05 09:03:00,28.0,15.0,-100.00,West,265,8.0,21.0,58,0.00,,,0.00,112.000000,,2013-11-05 16:03:00,
2013-11-05 09:13:00,28.0,15.0,-100.00,West,265,8.0,21.0,58,0.00,,,0.00,112.000000,,2013-11-05 16:13:00,
2013-11-05 09:23:00,28.0,15.0,-100.00,West,265,8.0,21.0,58,0.00,,,0.00,112.000000,,2013-11-05 16:23:00,
2013-11-05 09:32:00,28.0,15.0,-100.00,West,265,8.0,21.0,58,0.00,,,0.00,112.000000,,2013-11-05 16:32:00,
2013-11-05 10:12:00,28.0,14.0,-100.00,West,275,14.0,26.0,54,0.00,,,0.00,284.000000,,2013-11-05 17:12:00,
2013-11-05 10:22:00,28.0,14.0,-100.00,West,275,14.0,26.0,54,0.00,,,0.00,284.000000,,2013-11-05 17:22:00,
2013-11-05 10:32:00,28.0,14.0,-100.00,West,275,14.0,26.0,54,0.00,,,0.00,284.000000,,2013-11-05 17:32:00,
2013-11-05 11:12:00,28.0,13.0,-100.00,West,259,13.0,26.0,52,0.00,,,0.00,526.000000,,2013-11-05 18:12:00,
2013-11-05 11:22:00,28.0,13.0,-100.00,West,259,13.0,26.0,52,0.00,,,0.00,526.000000,,2013-11-05 18:22:00,
2013-11-05 11:33:00,28.0,13.0,-100.00,West,259,13.0,26.0,52,0.00,,,0.00,526.000000,,2013-11-05 18:33:00,
2013-11-05 11:52:00,29.0,12.0,-100.00,WSW,256,15.0,24.0,48,0.04,,,0.04,579.000000,,2013-11-05 18:52:00,
2013-11-05 12:02:00,29.0,12.0,-100.00,WSW,256,15.0,24.0,48,0.04,,,0.04,579.000000,,2013-11-05 19:02:00,
2013-11-05 12:11:00,29.0,12.0,-100.00,WSW,256,15.0,24.0,48,0.04,,,0.04,579.000000,,2013-11-05 19:11:00,
2013-11-05 12:22:00,29.0,12.0,-100.00,WSW,256,15.0,24.0,48,0.04,,,0.04,579.000000,,2013-11-05 19:22:00,
2013-11-05 12:32:00,29.0,12.0,-100.00,WSW,256,15.0,24.0,48,0.04,,,0.04,579.000000,,2013-11-05 19:32:00,
2013-11-05 13:12:00,30.0,10.0,-100.00,West,276,18.0,33.0,42,0.01,,,0.05,664.000000,,2013-11-05 20:12:00,
2013-11-05 13:22:00,30.0,10.0,-100.00,West,276,18.0,33.0,42,0.01,,,0.05,664.000000,,2013-11-05 20:22:00,
2013-11-05 13:32:00,30.0,10.0,-100.00,West,276,18.0,33.0,42,0.01,,,0.05,664.000000,,2013-11-05 20:32:00,
2013-11-05 13:53:00,31.0,5.0,-100.00,West,279,12.0,32.0,33,0.00,,,0.05,579.000000,,2013-11-05 20:53:00,
2013-11-05 14:02:00,31.0,5.0,-100.00,West,279,12.0,32.0,33,0.00,,,0.05,579.000000,,2013-11-05 21:02:00,
2013-11-05 14:12:00,31.0,5.0,-100.00,West,279,12.0,32.0,33,0.00,,,0.05,579.000000,,2013-11-05 21:12:00,
2013-11-05 14:22:00,31.0,5.0,-100.00,West,279,12.0,32.0,33,0.00,,,0.05,579.000000,,2013-11-05 21:22:00,
2013-11-05 14:33:00,31.0,5.0,-100.00,West,279,12.0,32.0,33,0.00,,,0.05,579.000000,,2013-11-05 21:33:00,
2013-11-05 14:34:00,30.0,7.0,-100.00,West,270,13.0,27.0,37,0.00,,,0.05,508.000000,,2013-11-05 21:34:00,
2013-11-05 14:54:00,30.0,7.0,-100.00,West,270,13.0,27.0,37,0.00,,,0.05,508.000000,,2013-11-05 21:54:00,
2013-11-05 15:04:00,30.0,7.0,-100.00,West,270,13.0,27.0,37,0.00,,,0.05,508.000000,,2013-11-05 22:04:00,
2013-11-05 15:13:00,30.0,7.0,-100.00,West,270,13.0,27.0,37,0.00,,,0.05,508.000000,,2013-11-05 22:13:00,
2013-11-05 15:23:00,30.0,7.0,-100.00,West,270,13.0,27.0,37,0.00,,,0.05,508.000000,,2013-11-05 22:23:00,
2013-11-05 15:34:00,30.0,4.0,-100.00,West,278,12.0,26.0,32,0.00,,,0.05,347.000000,,2013-11-05 22:34:00,
2013-11-05 15:53:00,30.0,4.0,-100.00,West,278,12.0,26.0,32,0.00,,,0.05,347.000000,,2013-11-05 22:53:00,
2013-11-05 16:03:00,30.0,4.0,-100.00,West,278,12.0,26.0,32,0.00,,,0.05,347.000000,,2013-11-05 23:03:00,
2013-11-05 16:12:00,30.0,4.0,-100.00,West,278,12.0,26.0,32,0.00,,,0.05,347.000000,,2013-11-05 23:12:00,
2013-11-05 16:22:00,30.0,4.0,-100.00,West,278,12.0,26.0,32,0.00,,,0.05,347.000000,,2013-11-05 23:22:00,
2013-11-05 16:53:00,25.0,3.0,-100.00,West,272,11.0,19.0,38,0.00,,,0.05,151.000000,,2013-11-05 23:53:00,
2013-11-05 17:03:00,25.0,3.0,-100.00,West,272,11.0,19.0,38,0.00,,,0.05,151.000000,,2013-11-06 00:03:00,
2013-11-05 17:12:00,25.0,3.0,-100.00,West,272,11.0,19.0,38,0.00,,,0.05,151.000000,,2013-11-06 00:12:00,
2013-11-05 17:22:00,25.0,3.0,-100.00,West,272,11.0,19.0,38,0.00,,,0.05,151.000000,,2013-11-06 00:22:00,
2013-11-05 17:32:00,25.0,3.0,-100.00,West,272,11.0,19.0,38,0.00,,,0.05,151.000000,,2013-11-06 00:32:00,
2013-11-05 17:52:00,22.0,2.0,-100.00,WSW,254,10.0,23.0,42,0.00,,,0.05,4.000000,,2013-11-06 00:52:00,
2013-11-05 18:02:00,22.0,2.0,-100.00,WSW,254,10.0,23.0,42,0.00,,,0.05,4.000000,,2013-11-06 01:02:00,
2013-11-05 18:11:00,22.0,2.0,-100.00,WSW,254,10.0,23.0,42,0.00,,,0.05,4.000000,,2013-11-06 01:11:00,
2013-11-05 18:22:00,22.0,2.0,-100.00,WSW,254,10.0,23.0,42,0.00,,,0.05,4.000000,,2013-11-06 01:22:00,
2013-11-05 18:32:00,22.0,2.0,-100.00,WSW,254,10.0,23.0,42,0.00,,,0.05,4.000000,,2013-11-06 01:32:00,
2013-11-05 18:52:00,20.0,1.0,-100.00,WSW,257,6.0,15.0,43,0.00,,,0.05,0.000000,,2013-11-06 01:52:00,
2013-11-05 19:02:00,20.0,1.0,-100.00,WSW,257,6.0,15.0,43,0.00,,,0.05,0.000000,,2013-11-06 02:02:00,
2013-11-05 19:12:00,20.0,1.0,-100.00,WSW,257,6.0,15.0,43,0.00,,,0.05,0.000000,,2013-11-06 02:12:00,
2013-11-05 19:23:00,20.0,1.0,-100.00,WSW,257,6.0,15.0,43,0.00,,,0.05,0.000000,,2013-11-06 02:23:00,
2013-11-05 19:32:00,20.0,1.0,-100.00,WSW,257,6.0,15.0,43,0.00,,,0.05,0.000000,,2013-11-06 02:32:00,
2013-11-05 19:34:00,18.0,1.0,-100.00,WNW,290,9.0,16.0,46,0.00,,,0.05,0.000000,,2013-11-06 02:34:00,
2013-11-05 19:52:00,18.0,1.0,-100.00,WNW,290,9.0,16.0,46,0.00,,,0.05,0.000000,,2013-11-06 02:52:00,
2013-11-05 20:02:00,18.0,1.0,-100.00,WNW,290,9.0,16.0,46,0.00,,,0.05,0.000000,,2013-11-06 03:02:00,
2013-11-05 20:12:00,18.0,1.0,-100.00,WNW,290,9.0,16.0,46,0.00,,,0.05,0.000000,,2013-11-06 03:12:00,
2013-11-05 20:22:00,18.0,1.0,-100.00,WNW,290,9.0,16.0,46,0.00,,,0.05,0.000000,,2013-11-06 03:22:00,
2013-11-05 20:34:00,16.0,-1.0,-100.00,West,281,9.0,16.0,47,0.00,,,0.05,0.000000,,2013-11-06 03:34:00,
2013-11-05 20:55:00,16.0,-1.0,-100.00,West,281,9.0,16.0,47,0.00,,,0.05,0.000000,,2013-11-06 03:55:00,
2013-11-05 21:05:00,16.0,-1.0,-100.00,West,281,9.0,16.0,47,0.00,,,0.05,0.000000,,2013-11-06 04:05:00,
2013-11-05 21:14:00,16.0,-1.0,-100.00,West,281,9.0,16.0,47,0.00,,,0.05,0.000000,,2013-11-06 04:14:00,
2013-11-05 21:24:00,16.0,-1.0,-100.00,West,281,9.0,16.0,47,0.00,,,0.05,0.000000,,2013-11-06 04:24:00,
2013-11-05 21:34:00,15.0,-2.0,-100.00,WNW,283,9.0,13.0,45,0.00,,,0.05,0.000000,,2013-11-06 04:34:00,
2013-11-05 21:54:00,15.0,-2.0,-100.00,WNW,283,9.0,13.0,45,0.00,,,0.05,0.000000,,2013-11-06 04:54:00,
2013-11-05 22:03:00,15.0,-2.0,-100.00,WNW,283,9.0,13.0,45,0.00,,,0.05,0.000000,,2013-11-06 05:03:00,
2013-11-05 22:13:00,15.0,-2.0,-100.00,WNW,283,9.0,13.0,45,0.00,,,0.05,0.000000,,2013-11-06 05:13:00,
2013-11-05 22:23:00,15.0,-2.0,-100.00,WNW,283,9.0,13.0,45,0.00,,,0.05,0.000000,,2013-11-06 05:23:00,
2013-11-05 22:53:00,14.0,-3.0,-100.00,WNW,287,8.0,15.0,46,0.00,,,0.05,0.000000,,2013-11-06 05:53:00,
2013-11-05 23:03:00,14.0,-3.0,-100.00,WNW,287,8.0,15.0,46,0.00,,,0.05,0.000000,,2013-11-06 06:03:00,
2013-11-05 23:13:00,14.0,-3.0,-100.00,WNW,287,8.0,15.0,46,0.00,,,0.05,0.000000,,2013-11-06 06:13:00,
2013-11-05 23:22:00,14.0,-3.0,-100.00,WNW,287,8.0,15.0,46,0.00,,,0.05,0.000000,,2013-11-06 06:22:00,
2013-11-05 23:32:00,14.0,-3.0,-100.00,WNW,287,8.0,15.0,46,0.00,,,0.05,0.000000,,2013-11-06 06:32:00,
2013-11-05 23:52:00,14.0,-4.0,-100.00,WNW,296,8.0,16.0,44,0.00,,,0.05,0.000000,,2013-11-06 06:52:00,